Flag for India Weather past 2 weeks in Thiruvananthapuram, Kerala, India

Now
90 °F

Passing clouds.


Feels Like: 105 °F
Forecast: 79 / 86 °F
Wind: 9 mph from Southwest

Location: Thiruvananthapuram

Current Time: Jul 1, 2015 at 12:55:55 PM

Latest Report: Jul 1, 2015 at 12:10 PM


Visibility: 4 mi

Pressure: 29.86 "Hg

Humidity: 71%

Dew point: 79 °F

Location of ThiruvananthapuramLocation

Historic Weather in Thiruvananthapuram — Graph

°F

Thiruvananthapuram temperature yesterday

Maximum temperature yesterday: 90 °F (at 2:40 PM)
Minimum temperature yesterday: 79 °F (at 1:10 AM)
Average temperature yesterday: 83 °F

Past Weeks' High & Low Weather Summary

 TemperatureHumidityPressure
High90 °F (Jun 20, 12:10 PM)100% (Jun 28, 3:10 AM)29.92 "Hg (Jun 28, 3:10 AM)
Low48 °F (Jun 29, 12:10 PM)63% (Jun 20, 12:10 PM)29.65 "Hg (Jun 17, 3:40 PM)
Average82 °F81%29.78 "Hg
* Reported Jun 16 11:40 AM — Jul 1 11:40 AM, Thiruvananthapuram, Weather by CustomWeather, © 2015

Note: Actual official high and low records may vary slightly from our data, if they occured in-between our weather recording intervals... More about our weather records

Advertising

Thiruvananthapuram weather history for previous 24 hours

 ConditionsComfort  
Time TempWeatherWind HumidityBarometerVisibility
11:40 AM
Wed, Jul 1
88 °FHaze.9 mph75%29.86 "Hg3 mi
11:10 AM88 °FHaze.8 mph75%29.89 "Hg3 mi
10:40 AM88 °FHaze.7 mph75%29.89 "Hg3 mi
10:10 AM88 °FScattered clouds.9 mph75%29.89 "Hg3 mi
9:40 AM86 °FScattered clouds.9 mph79%29.89 "Hg3 mi
9:10 AM86 °FScattered clouds.8 mph79%29.89 "Hg3 mi
8:40 AM84 °FScattered clouds.7 mph79%29.89 "Hg3 mi
7:40 AM81 °FScattered clouds.5 mph84%29.86 "Hg2 mi
7:10 AM79 °FScattered clouds.No wind89%29.86 "Hg2 mi
6:40 AM77 °FScattered clouds.No wind94%29.83 "Hg2 mi
6:10 AM77 °FPassing clouds.No wind89%29.86 "Hg2 mi
4:40 AM77 °FPassing clouds.No wind94%29.83 "Hg2 mi
3:40 AM77 °FPassing clouds.No wind94%29.83 "Hg2 mi
2:40 AM77 °FPassing clouds.No wind94%29.83 "Hg2 mi
1:40 AM79 °FPassing clouds.5 mph84%29.86 "Hg2 mi
1:10 AM79 °FPassing clouds.3 mph89%29.86 "Hg2 mi
12:40 AM79 °FPassing clouds.3 mph89%29.86 "Hg2 mi
12:10 AM79 °FPassing clouds.No wind89%29.89 "Hg2 mi
11:40 PM
Tue, Jun 30
81 °FPassing clouds.2 mph84%29.89 "Hg2 mi
9:40 PM82 °FPassing clouds.2 mph79%29.89 "Hg2 mi
8:10 PM82 °FPassing clouds.3 mph84%29.89 "Hg2 mi
7:40 PM84 °FPassing clouds.3 mph79%29.86 "Hg2 mi
7:10 PM84 °FScattered clouds.5 mph79%29.83 "Hg2 mi
6:10 PM84 °FScattered clouds.7 mph84%29.83 "Hg3 mi
5:40 PM86 °FScattered clouds.7 mph79%29.80 "Hg3 mi
5:10 PM86 °FScattered clouds.9 mph79%29.80 "Hg3 mi
4:40 PM86 °FScattered clouds.7 mph79%29.80 "Hg3 mi
3:40 PM88 °FScattered clouds.12 mph75%29.80 "Hg3 mi
3:10 PM88 °FScattered clouds.9 mph75%29.80 "Hg3 mi
2:40 PM90 °FScattered clouds.12 mph71%29.80 "Hg3 mi
2:10 PM88 °FScattered clouds.10 mph75%29.80 "Hg3 mi
1:40 PM88 °FScattered clouds.9 mph75%29.83 "Hg3 mi
12:40 PM88 °FPassing clouds.10 mph70%29.86 "Hg4 mi
12:10 PMN/APassing clouds.7 mphN/AN/A4 mi
Weather by CustomWeather, © 2015

See weather overviewHow to use our weather pages